Weather History for Keahole Point, HI

Change the Weather History Date:

Thursday, November 1, 2012

  Actual Average Record
Temperature  
Mean Temperature 77 °F -  
Max Temperature 82 °F 82 °F 89 °F (1983)
Min Temperature 72 °F 72 °F 66 °F (1985)
Cooling Degree Days 12    
Growing Degree Days 27 (Base 50)    
Moisture  
Dew Point 61 °F    
Average Humidity 55    
Maximum Humidity 66    
Minimum Humidity 47    
Precipitation  
Precipitation 0.00 in - - ()
Sea Level Pressure  
Sea Level Pressure 29.96 in    
Wind  
Wind Speed 6 mph (SSE)    
Max Wind Speed 13 mph    
Max Gust Speed -    
Visibility 10 miles    
Events      
Averages and records for this station are not official NWS values.
T = Trace of Precipitation, MM = Missing Value Source: NWS Daily Summary

Daily Weather History Graph

Daily Weather History Graph

Search for Another Location

Airport:

Trip Planner

Search our weather history database for the weather conditions in past years. The results will help you decide how hot, cold, wet, or windy it might be!

Date:

Astronomy

Nov. 01, 2012 Rise Set
Actual Time 6:25 AM HST 5:49 PM HST
Civil Twilight 6:02 AM HST 6:12 PM HST
Nautical Twilight 5:36 AM HST 6:38 PM HST
Astronomical Twilight 5:10 AM HST 7:04 PM HST
Moon 8:11 PM HST (11/1) 8:51 AM HST (11/1)
Length of Visible Light 12h 09m
Length of Day
11h 23m
Waning Gibbous, 92% of the Moon is Illuminated
Nov 1
Waning Gibbous
Nov 6
Last Quarter
Nov 13
New
Nov 20
First Quarter
Nov 28
Full

Hourly Weather History & Observations

Time (HST) Temp. Heat Index Dew Point Humidity Pressure Visibility Wind Dir Wind Speed Gust Speed Precip Events Conditions
12:53 AM 73.9 °F - 59.0 °F 59% 29.98 in 10.0 mi North 4.6 mph - N/A   Clear
1:53 AM 73.9 °F - 59.0 °F 59% 29.96 in 10.0 mi East 3.5 mph - N/A   Partly Cloudy
2:53 AM 75.0 °F - 60.1 °F 60% 29.96 in 10.0 mi Calm Calm - N/A   Clear
3:53 AM 73.0 °F - 61.0 °F 66% 29.95 in 10.0 mi Calm Calm - N/A   Clear
4:53 AM 73.0 °F - 61.0 °F 66% 29.94 in 10.0 mi East 4.6 mph - N/A   Clear
5:53 AM 73.0 °F - 59.0 °F 61% 29.95 in 10.0 mi Calm Calm - N/A   Clear
6:53 AM 72.0 °F - 57.9 °F 61% 29.97 in 10.0 mi ENE 3.5 mph - N/A   Clear
7:53 AM 78.1 °F - 62.1 °F 58% 29.98 in 10.0 mi SSE 5.8 mph - N/A   Clear
8:53 AM 80.1 °F 81.9 °F 64.9 °F 60% 29.99 in 10.0 mi South 8.1 mph - N/A   Clear
9:53 AM 82.0 °F 83.4 °F 64.0 °F 54% 30.00 in 10.0 mi SSW 10.4 mph - N/A   Clear
10:53 AM 82.9 °F 84.4 °F 64.0 °F 53% 29.99 in 10.0 mi SSW 9.2 mph - N/A   Clear
11:53 AM 82.0 °F 83.1 °F 63.0 °F 52% 29.98 in 10.0 mi WSW 9.2 mph - N/A   Clear
12:53 PM 82.0 °F 83.4 °F 64.0 °F 54% 29.96 in 10.0 mi SW 11.5 mph - N/A   Overcast
1:53 PM 82.0 °F 82.7 °F 61.0 °F 49% 29.94 in 10.0 mi SSW 11.5 mph - N/A   Overcast
2:53 PM 82.0 °F 82.4 °F 60.1 °F 47% 29.91 in 10.0 mi South 10.4 mph - N/A   Scattered Clouds
3:53 PM 82.0 °F 82.7 °F 61.0 °F 49% 29.91 in 10.0 mi South 12.7 mph - N/A   Overcast
4:53 PM 81.0 °F 81.3 °F 59.0 °F 47% 29.92 in 10.0 mi SSE 11.5 mph - N/A   Mostly Cloudy
5:53 PM 81.0 °F 81.3 °F 59.0 °F 47% 29.94 in 10.0 mi SSE 12.7 mph - N/A   Overcast
6:53 PM 81.0 °F 81.6 °F 60.1 °F 49% 29.95 in 10.0 mi SSE 11.5 mph - N/A   Overcast
7:53 PM 80.1 °F 80.7 °F 59.0 °F 48% 29.97 in 10.0 mi SSE 5.8 mph - N/A   Overcast
8:53 PM 78.1 °F - 59.0 °F 52% 29.98 in 10.0 mi ESE 4.6 mph - N/A   Partly Cloudy
9:53 PM 77.0 °F - 59.0 °F 54% 29.99 in 10.0 mi SE 4.6 mph - N/A   Partly Cloudy
10:53 PM 77.0 °F - 59.0 °F 54% 29.99 in 10.0 mi SE 3.5 mph - N/A   Scattered Clouds
11:53 PM 75.9 °F - 60.1 °F 58% 29.99 in 10.0 mi ESE 4.6 mph - N/A   Mostly Cloudy